{"data":{"norad_id":55956,"intl_designator":"2023-037AU","name":"STARLINK-5883","alt_names":[],"object_type":"PAYLOAD","status":"ACTIVE","operator":null,"country":"US","launch_date":"2023-03-17","launch_site_code":"AFWTR","launch_vehicle":null,"mission":null,"orbit_class":"UNKNOWN","rcs_meters":null,"size_class":null,"mass_kg":null,"dimensions":null,"purposes":["comms"],"wikipedia_slug":null,"has_3d_model":false,"image_url":null,"decayed_at":null,"tle_current":{"epoch":"2026-09-20T08:18:17.664192Z","epoch_age_seconds":119530,"freshness":"FRESH","line1":"1 55956U 23037AU  26263.34603778  .00000182  00000+0  23014-4 0  9996","line2":"2 55956  69.9987 133.5422 0002887 272.8534  87.2294 14.98333158193635","mean_motion":14.98333158,"eccentricity":0.0002887,"inclination_deg":69.9987,"raan_deg":133.5422,"arg_perigee_deg":272.8534,"mean_anomaly_deg":87.2294,"bstar":2.3014e-5,"rev_number":19363,"period_min":96.106796563331,"perigee_km":570.03960723885,"apogee_km":574.05264297529,"semimajor_km":6950.1831251071,"source":"CELESTRAK","updated_at":"2026-09-21T09:00:33.346839Z"}}}